Location: ČR
(50.0000°N, 15.0000°E)
Time: 23:46:57
(UTC+00:00)

O/OREOS (USA 219) - Visible Passes

Search period start: 06 December 2021 00:00
Search period end: 16 December 2021 00:00
Orbit: 621 x 646 km, 72.0° (Epoch: 22 May)

Date Brightness Start Highest point End Pass type
(mag) Time Alt. Az. Time Alt. Az. Time Alt. Az.
08 Dec ? 16:59:09 10° N 16:59:55 12° NNE 16:59:55 12° NNE visible
09 Dec ? 17:20:36 10° N 17:21:51 16° N 17:21:51 16° N visible
10 Dec ? 16:05:22 10° NNE 16:06:05 10° NNE 16:06:25 10° NE visible
10 Dec ? 17:42:21 10° NNW 17:43:53 20° N 17:43:53 20° N visible
11 Dec ? 16:25:51 10° N 16:28:33 16° NE 16:28:33 16° NE visible
11 Dec ? 18:04:18 10° NNW 18:06:02 23° NNW 18:06:02 23° NNW visible
12 Dec ? 16:47:21 10° N 16:50:50 26° NE 16:50:50 26° NE visible
12 Dec ? 18:26:29 10° NW 18:28:20 23° NW 18:28:20 23° NW visible
13 Dec ? 17:09:08 10° NNW 17:13:21 46° NE 17:13:21 46° NE visible
13 Dec ? 18:49:00 10° NW 18:50:52 19° WNW 18:50:52 19° WNW visible
14 Dec ? 15:52:33 10° N 15:55:39 17° NE 15:58:41 10° E visible
14 Dec ? 17:31:07 10° NNW 17:35:45 89° NE 17:36:14 72° SSE visible
14 Dec ? 19:12:26 10° WNW 19:13:47 12° W 19:13:47 12° W visible
15 Dec ? 16:14:07 10° N 16:18:08 28° NE 16:22:08 10° ESE visible
15 Dec ? 17:53:19 10° NW 17:57:44 45° WSW 17:59:50 27° SSW visible
